TELSTAR 14R

Last updated on Jan. 17, 2021, 6:29 a.m. UTC

1 37602U 11021A   21016.51959965 -.00000284  00000-0  00000-0 0  9997
2 37602   0.0170   1.5374 0002269 349.9026 248.7496  1.00271011 35999
UTC
Height (km)
Latitude
Longitude
Inclination
Orbital Period
UTC large
Height (km)
Speed (km/s)
/
Latitude / Longitude
Inclination (degrees)
Orbital Period (minutes)
Azimuth
Elevation
Range (km)
Doppler Factor
iOS Compass Heading
iOS Angle

Next 30 passes for location: Hong Kong

Rise time Rise Azimuth (degrees) Set time Set Azimuth (degrees) Duration Max altitude (degrees)

No matching passes for this satellites